sat.trackr.live / text

‹ back to catalog

STARLINK-31498

NORAD 59189 · 2024-045M

PAYLOAD ACTIVE UNKNOWN

§ Identity

Operator
Country
US
Launch date
2024-03-10
Launch site
AFETR
Launch vehicle
Mass (kg)
RCS (m²)

Purposes: comms

External: N2YO · Heavens-Above · Gunter

§ Orbital elements

Epoch: 2026-05-25T00:46:29.604576Z

Period
94.27 min
Inclination
43.0033°
Eccentricity
0.0001045
Mean motion
15.27584205 rev/d
Perigee alt
482.3 km
Apogee alt
483.8 km
Semi-major
6,861.2 km
B*
6.9531e-6
RAAN
21.6883°
Arg perigee
271.2972°
Mean anomaly
88.7760°
Rev number
12,483

§ Raw data

STARLINK-314981 59189U 24045M   26145.03228709 -.00000071  00000+0  69531-5 0  99932 59189  43.0033  21.6883 0001045 271.2972  88.7760 15.27584205124838

JSON: /api/v1/satellites/59189 · /tle

For live sub-satellite position, see the globe view (requires WebGL).

§ Visibility from observer

Set your observer location to see the next 7 days of passes ≥ 10°. The values pass through the URL so the page stays shareable.

No JS? Fill the form by hand. The geolocation button needs JavaScript.